Location: Balbey
(36.8905°N, 30.7088°E)
Time: 11:16:56
(UTC+00:00)

Daily predictions for brighter satellites

Satellite Brightness Start Highest point End
(mag) Time Altitude Azimuth Time Altitude Azimuth Time Altitude Azimuth
Cosmos 2181 Rocket 4.1 16:51:56 10° SSE 16:57:55 55° E 17:04:00 10° NNE
Cosmos 1328 3.8 16:55:29 10° N 16:59:12 54° E 17:02:55 10° SSE
SJ-6B 3.2 16:59:04 10° SSE 17:02:51 46° ENE 17:06:40 10° N
Cosmos 1992 Rocket 4.0 17:00:10 10° S 17:05:19 69° ESE 17:10:30 10° NNE
Cosmos 1025 Rocket 3.0 17:06:27 10° N 17:10:50 78° E 17:15:12 10° S
Meteor 1-21 Rocket 4.4 17:05:00 10° N 17:10:55 69° E 17:16:46 10° SSE
Cosmos 2369 Rocket 4.2 17:07:02 10° SW 17:12:09 34° WNW 17:17:17 10° N
CZ-4B DEB 4.3 17:11:39 10° SSE 17:17:11 89° ENE 17:22:46 10° NNW
ATLAS 5 CENTAUR R/B 2.3 17:18:29 10° SW 17:21:37 41° NW 17:24:57 10° NNE
Cosmos 2341 Rocket 4.2 17:16:22 10° N 17:22:38 79° W 17:28:49 10° S
BlueWalker 3 1.8 17:20:16 10° SW 17:24:02 73° SE 17:27:51 10° NE
Milstar 3 4.2 17:16:49 10° SW 17:24:57 50° SSE 17:39:32 10° E
Cosmos 2098 Rocket 3.2 17:20:54 10° S 17:26:01 65° E 17:30:11 10° NNE
ADEOS Rocket 4.1 17:22:08 10° SSW 17:27:18 41° W 17:32:29 10° NNW
Cosmos 2366 rocket 4.1 17:21:49 10° N 17:28:12 89° WSW 17:34:33 10° S
CARTOSAT-1 4.4 17:25:40 13° SE 17:28:52 31° ENE 17:32:39 10° N
PSLV R/B 4.4 17:27:49 15° SE 17:30:27 33° ENE 17:33:51 10° N
Resurs 1-3 3.7 17:27:34 10° S 17:31:54 76° W 17:36:15 10° NNW
CZ-4B R/B 3.3 17:27:21 10° SSE 17:32:56 67° ENE 17:38:28 10° N
Cosmos 1455 4.1 17:30:13 10° SW 17:33:24 31° WNW 17:36:35 10° NNW
Nadezhda 3 Rocket 4.2 17:28:26 10° SSE 17:34:15 47° E 17:40:07 10° NNE
Okean-O 4.0 17:33:41 16° E 17:35:29 21° ENE 17:38:45 10° NNE
Cosmos 1975 Rocket 3.0 17:37:27 10° N 17:41:48 90° S 17:46:05 10° S
Cosmos 1821 Rocket 3.9 17:35:51 10° N 17:41:56 64° E 17:47:57 10° SSE
Cosmos 2218 Rocket 4.3 17:36:00 10° N 17:42:22 72° W 17:48:37 10° S
SPOT 1/Viking Rocket 3.6 17:37:36 10° SSE 17:42:49 84° WSW 17:48:03 10° NNW
Cosmos 44 4.2 17:38:40 10° S 17:43:19 31° ESE 17:48:01 10° NE
Cosmos 1833 4.4 17:39:09 10° NNW 17:44:46 71° WSW 17:50:20 10° SSE
Feng Yun 1-1 Rocket 4.2 17:40:18 10° SSE 17:45:46 74° ENE 17:51:25 10° N
USA 186 1.6 17:46:09 15° S 17:48:34 82° W 17:51:35 10° NNW
CZ-4C R/B 3.6 17:46:29 10° NE 17:49:32 31° E 17:49:50 31° ESE
Okean O Rocket 1.6 17:46:59 17° SSE 17:50:10 61° ENE 17:54:30 10° N
DELTA 4 R/B 4.2 17:48:15 10° SSW 17:52:36 19° SSE 17:53:56 18° SSE
Atlas Centaur 2 2.6 17:48:32 10° SW 17:53:27 32° S 17:55:02 26° SE
SL-27 R/B 1.7 17:52:19 10° NNW 17:55:12 84° ENE 17:56:00 43° SSE
Hubble Space Telescope 2.8 17:53:57 10° SW 17:56:05 14° SSW 17:57:12 13° S
CZ-4 R/B 2.7 17:53:21 10° SSW 17:57:02 38° W 18:00:40 10° NNW
Cosmos 1486 Rocket 4.1 17:52:41 10° N 17:57:49 58° ENE 18:00:36 26° SE
NOSS 3-1 (A) 3.7 17:56:34 10° SW 18:01:13 55° NW 18:06:41 10° NNE
Resurs 01 Rocket 1.6 18:01:32 18° SSE 18:04:47 86° WSW 18:09:13 10° NNW
Cosmos 1536 Rocket 4.0 18:03:41 10° N 18:07:54 42° E 18:08:42 38° ESE
SJ 16-02 3.7 18:05:57 10° NW 18:09:15 22° W 18:12:33 10° SSW
USA 229 DEB 3.4 18:04:01 10° SSW 18:09:48 56° ESE 18:16:05 10° NE
USA 229 3.4 18:04:07 10° SSW 18:09:54 55° ESE 18:16:11 10° NE
ERS-1 Rocket 4.4 18:11:30 21° ENE 18:11:46 21° ENE 18:15:27 10° NNE
OAO 1 Rocket 4.5 18:07:38 10° W 18:12:55 65° S 18:14:49 38° ESE
Cosmos 1339 Rocket 4.4 18:09:12 13° S 18:14:36 62° E 18:20:36 10° NNE
USA 234 3.3 18:11:15 29° ESE 18:14:48 70° NE 18:21:18 10° NW
USA 281 3.3 18:12:10 29° SE 18:15:35 61° ENE 18:22:03 10° NNW
Cosmos 1934 Rocket 4.1 18:13:31 10° N 18:19:34 53° E 18:21:53 35° SE
Cosmos 2151 Rocket 3.6 18:18:26 15° S 18:22:05 79° W 18:26:32 10° N
Tiangong -1.4 18:22:18 10° W 18:25:14 50° NNW 18:25:14 50° NNW
Cosmos 2227 Rocket 3.9 18:26:17 10° NNE 18:30:04 18° NE 18:30:32 18° ENE
Alouette 2 Rocket 4.2 18:23:42 10° N 18:30:04 52° ENE 18:30:43 48° E
MetOp-B 4.2 18:34:16 51° ESE 18:35:13 59° ENE 18:40:29 10° N
ATLAS 3B R/B 4.2 18:28:44 10° WSW 18:35:15 39° NW 18:42:13 10° NNE
Cosmos 1697 Rocket 3.7 18:37:21 29° ENE 18:37:21 29° ENE 18:40:38 10° NE
Cosmos 2360 4.2 18:35:31 51° SE 18:36:16 55° ESE 18:41:49 10° NNE
Cosmos 371 Rocket 3.1 18:37:16 10° NNW 18:42:05 87° ENE 18:42:31 74° SSE
SL-4 R/B 4.5 18:42:11 10° N 18:42:33 10° NNE 18:42:55 10° NNE
Okean 2 Rocket 4.0 18:40:35 14° SSW 18:44:12 47° W 18:48:33 10° N
COSMOS 2455 3.7 18:38:51 10° N 18:44:13 32° NE 18:44:51 32° ENE
Cosmos 1777 Rocket 3.8 18:39:39 10° NNW 18:44:57 78° ENE 18:45:32 68° SE
Cosmos 304 Rocket 3.6 18:41:20 10° NNW 18:46:06 76° ENE 18:46:06 76° ENE
IRS-1A Rocket 4.4 18:45:57 56° ESE 18:46:56 66° ENE 18:52:46 10° N
SPOT 5 3.0 18:46:55 66° SE 18:47:32 75° ENE 18:52:49 10° N
CZ-4C R/B 4.0 18:48:50 10° NNW 18:55:20 32° NE 18:57:31 28° ENE
Spot 2 Rocket 4.3 18:56:17 38° NE 18:56:17 38° NE 19:00:10 10° N
Cosmos 1535 Rocket 4.4 18:51:05 10° N 18:57:29 78° E 18:58:29 64° SSE
Cosmos 2297 Rocket 2.3 18:53:20 10° NNW 18:58:46 56° ENE 18:58:46 56° ENE
Cosmos 1656 4.5 18:53:37 10° SW 18:59:01 50° WNW 19:04:24 10° N
Terra 2.6 19:01:26 40° NNE 19:01:26 40° NNE 19:04:50 10° N
Cosmos 1503 Rocket 4.5 18:57:11 10° NNW 19:02:26 56° WSW 19:03:17 50° SW
Cosmos 1354 Rocket 4.0 19:00:04 10° NNW 19:05:23 72° WSW 19:05:35 71° SW
Iridium 4 Rocket 4.0 19:04:24 46° SW 19:05:51 64° W 19:11:35 10° N
Okean 1 Rocket 4.2 19:06:57 38° WSW 19:07:45 42° W 19:12:00 10° N
USA 245 4.1 19:09:43 67° N 19:09:43 67° N 19:13:46 10° N
Okean-O 4.0 19:11:08 30° WSW 19:11:39 31° W 19:15:35 10° NW
Ariane Rocket 3.6 19:16:22 50° NNE 19:16:22 50° NNE 19:20:12 10° N
Cosmos 1763 Rocket 3.8 19:17:53 62° NW 19:17:53 62° NW 19:22:30 10° NNE
Cosmos 2263 Rocket 4.1 19:21:42 10° NNE 19:24:25 17° NE 19:24:25 17° NE
Cosmos 1605 Rocket 4.2 19:27:54 10° NNW 19:34:12 65° W 19:34:29 64° WSW
Atlas Centaur 2 4.4 19:37:14 10° WSW 19:37:20 10° WSW 19:37:20 10° WSW
ERS-1 Rocket 4.4 19:51:26 34° WNW 19:51:26 34° WNW 19:54:55 10° NNW
CENTAUR R/B 3.8 19:48:49 10° NNW 19:56:50 44° NE 19:57:39 43° ENE
Cosmos 1980 Rocket 3.9 20:13:33 26° NNE 20:13:33 26° NNE 20:15:57 10° NNE
Cosmos 2227 Rocket 3.5 20:08:57 10° NNW 20:12:21 36° NW 20:12:21 36° NW
Cosmos 1697 Rocket 4.4 20:18:57 28° WNW 20:19:26 28° WNW 20:24:17 10° N
COSMOS 2455 4.4 20:24:38 10° NW 20:27:59 29° WNW 20:27:59 29° WNW
CZ-4C R/B 3.5 20:36:40 10° NW 20:42:37 55° WNW 20:42:37 55° WNW
Cosmos 2263 Rocket 4.3 21:04:19 10° NNW 21:06:06 21° NW 21:06:06 21° NW
SL-16 R/B 4.5 21:41:08 19° N 21:41:08 19° N 21:42:45 10° NNE
CENTAUR R/B 4.2 21:39:28 10° NW 21:44:48 38° WNW 21:44:48 38° WNW
Cosmos 2360 Rocket 4.4 22:51:06 20° NNW 22:51:06 20° NNW 22:53:06 10° N
Cosmos 2333 Rocket 4.3 23:03:48 20° NNW 23:03:48 20° NNW 23:05:54 10° N
Cosmos 2219 Rocket 4.2 23:05:42 23° N 23:05:42 23° N 23:07:54 10° N
Cosmos 2278 Rocket 4.2 23:04:37 10° N 23:08:59 22° ENE 23:09:02 22° ENE
CZ-2D R/B 4.1 23:12:37 10° NNE 23:15:10 24° NE 23:15:10 24° NE
ATLAS 2AS CENTAUR R/B 4.3 23:21:20 25° E 23:21:20 25° E 23:26:21 10° ENE
IDEFIX/ARIANE 42P 4.2 23:37:09 10° NNE 23:39:49 31° NNE 23:39:49 31° NNE
Resurs 1-4 Rocket 3.6 23:37:32 10° NNE 23:40:30 34° NNE 23:40:30 34° NNE
Cosmos 1943 Rocket 4.1 23:41:52 10° N 23:46:30 25° ENE 23:50:00 15° ESE
CZ-2C R/B 3.7 23:54:40 43° NNE 23:54:40 43° NNE 23:58:37 10° N
